Location: Gravenhurst
(44.9196°N, 79.3742°W)
Time: 08:47:44
(UTC-05:00)

Envisat - Pass Details

Date: 27 October 2019
Orbit: 764 x 766 km, 98.1° (Epoch: 20 November)

Event Time Altitude Azimuth Distance (km) Brightness Sun altitude
Rises 20:50:46 0° 218° (SW) 3,221 6.6 -28.4°
Reaches altitude 10° 20:54:28 10° 246° (WSW) 2,302 6.1 -29.0°
Maximum altitude 20:56:41 13° 272° (W) 2,115 6.1 -29.4°
Drops below altitude 10° 20:58:55 10° 299° (WNW) 2,309 6.3 -29.8°
Sets 21:02:40 0° 327° (NNW) 3,242 6.8 -30.5°
